Вернуться в каталог

ICEYE-X54

АктивенНаукаSSO
NORAD 64570·PAYLOAD·🇫🇮 Finland

Запущен Jun 23, 2025 с Vandenberg Space Force Base

Loading…

Ближайшие Пролёты (ближайшие 24 часа)

TLE

СвежийSource: Space-Track

Эпоха: Sep 14, 2026, 22:15 UTC

1 64570U 25135AU  26257.92777699  .00002540  00000-0  23809-3 0  9992
2 64570  97.7795  11.5335 0003015  46.7785 313.3687 14.94913043 67307

Отслеживайте ICEYE-X54 в реальном времени с AllMySat

Download on the App Store